Regional Weather Roundup
Issued by NWS Upton, NY

Current Version | Previous Version | Graphics & Text | Print | Product List | Glossary Off
Versions: 1 2 3 4 5 6 7 8 9 10 11 12 13 14 15 16 17 18 19 20 21 22 23 24 25 26 27 28 29 30 31 32 33 34 35 36 37 38 39 40 41 42 43 44 45 46 47 48 49 50

000
ASUS41 KOKX 020305
RWROKX
REGIONAL WEATHER ROUNDUP
NATIONAL WEATHER SERVICE NEW YORK NY
1100 PM EDT MON SEP 01 2014

NOTE: "FAIR" INDICATES FEW OR NO CLOUDS BELOW 12,000 FEET WITH NO
SIGNIFICANT WEATHER AND/OR OBSTRUCTIONS TO VISIBILITY.

NYZ071-072-176-178-NJZ106-104-020400-
NEW YORK CITY METRO AREA


CITY           SKY/WX    TMP DP  RH WIND       PRES   REMARKS
CENTRAL PARK   PTCLDY    81  71  71 SW5       29.97S
LAGUARDIA APRT NOT AVBL
KENNEDY INTL   PTCLDY    79  73  82 SW9       29.95S
NEWARK/LIBERTY PTCLDY    81  73  76 SW7       29.95R
BRNX BOT. GARD   N/A     81  70  69 E2        29.97R
TETERBORO      PTCLDY    81  71  71 S5        29.93S
$$

NYZ177-179-078>081-020400-
LONG ISLAND NEW YORK

CITY           SKY/WX    TMP DP  RH WIND       PRES   REMARKS
FARMINGDALE    CLEAR     76  73  91 W5        29.96S
ISLIP          PTCLDY    76  72  87 SW6       29.94S
SHIRLEY        CLEAR     75  73  93 S5        29.97R
WESTHAMPTON    CLEAR     75  72  90 SW6       29.98S
MONTAUK POINT    N/A     73  72  96 VRB3      29.98S
$$

NYZ052-065-067-020400-
HUDSON VALLEY

CITY           SKY/WX    TMP DP  RH WIND       PRES   REMARKS
WHITE PLAINS   PTCLDY    73  72  96 CALM      29.96R FOG
NEWBURGH       CLEAR     75  72  88 CALM      29.97R
MONTGOMERY     CLOUDY    73  71  93 CALM      29.95R
POUGHKEEPSIE   MOCLDY    74  72  93 CALM      29.93R
ALBANY         MOCLDY    77  69  76 S5        29.92S
$$

NJZ001-105-106-008-010-013-015-019>022-104-020400-
NEW JERSEY

CITY           SKY/WX    TMP DP  RH WIND       PRES   REMARKS
NEWARK/LIBERTY PTCLDY    81  73  76 SW7       29.95R
TETERBORO      PTCLDY    81  71  71 S5        29.93S
CALDWELL       CLEAR     79  70  74 CALM      29.96R
MORRISTOWN     CLEAR     75  70  83 CALM      29.96R
SOMERVILLE     CLEAR     74  71  91 CALM      29.94S
LINDEN         FAIR      84  76  76 W5        29.96S HX  93
SUSSEX         PTCLDY    74  71  91 CALM      29.96S
ANDOVER          N/A     71  70  96 CALM      29.97F
TRENTON        MOCLDY    79  72  79 SW3       29.96R
MILLVILLE      PTCLDY    76  74  93 SW3       29.97R
ATLANTIC CITY  CLEAR     77  75  93 SW5       29.96F
WRIGHTSTOWN    PTCLDY    74  74  98 S3        29.94S
TOMS RIVER     PTCLDY    73  72  94 CALM      29.97R
BELMAR         CLEAR     75  70  83 SW5       29.97R
$$

PAZ047>061-062-071-020400-
EASTERN PENNSYLVANIA

CITY           SKY/WX    TMP DP  RH WIND       PRES   REMARKS
PHILADELPHIA   MOCLDY    79  73  82 W6        29.97R
ALLENTOWN      CLEAR     75  71  87 SW6       29.96S
SCRANTON       PTCLDY    76  69  79 CALM      29.98S
$$

CTZ002-004>006-009-010-012-RIZ004-006-007-MAZ004-011-015-020400-
SOUTHERN NEW ENGLAND
 IN CT

CITY           SKY/WX    TMP DP  RH WIND       PRES   REMARKS
BRADLEY INTL   MOCLDY    77  71  82 S7        29.94R
HARTFORD       MOCLDY    76  71  85 S5        29.94S
DANBURY        CLEAR     73  71  93 CALM      29.98R
WTRBRY/OXFORD  PTCLDY    73  70  88 CALM      30.00S
BRIDGEPORT     PTCLDY    77  73  87 SW6       29.95S
MERIDEN        MOCLDY    73  71  93 S3        29.95S
NEW HAVEN      MOCLDY    78  72  81 CALM      29.95S
CHESTER        FAIR      73  72  94 SW3       29.98S
GROTON         PTCLDY    72  71  97 SW3       29.96S
WILLIMANTIC    CLEAR     73  71  93 CALM      29.96S

 IN RI

CITY           SKY/WX    TMP DP  RH WIND       PRES   REMARKS
PROVIDENCE     PTCLDY    74  70  87 S7        29.96S
BLOCK ISLAND   CLOUDY    72  70  94 SW12      29.98S
WESTERLY       PTCLDY    74  70  87 SW3       29.97S

 IN MA

CITY           SKY/WX    TMP DP  RH WIND       PRES   REMARKS
BOSTON         PTCLDY    78  70  76 SW9       29.93S
WORCESTER      CLEAR     71  69  93 SW8       29.98F
WESTFIELD      CLEAR     73  70  90 S3        29.94S
PROVINCETOWN   CLEAR     72  66  83 S8        29.95S
NANTUCKET      FOG       69  68  96 SW7       29.98R VSB 1/4
$$

ANZ330-335-338-340-345-350-353-355-020400-
COASTAL MARINE OBSERVATIONS


STATION/POSITION TIME  SKY/WX   TEMP    WIND        PRES    VSBY  WAVE
                                AIR SEA DIR/SP/G                  HT/PER
                 (UTC)          (F)     (DEG/KT/KT) (MB)    (MI)  (FT/S)
NY HARB ENTRANCE NOT AVBL
4S FIRE IS       NOT AVBL
23SW MTP         0300                                 N/A           3/ 6
HUDSON CANYON    0300            75 74  210/ 12/ 14 1014.9          3/ 6
EXECUTION ROCKS  0300            78 75  200/  8/ 10   N/A
WESTERN LI SOUND 0300            78     200/  6/  8   N/A           0
CENTRAL LI SOUND 0200            74 74  210/ 10/ 12   N/A           1/ 2
EASTERN LI SOUND 0200            73 71  240/  4/  6   N/A
ROBBINS REEF     0300            80     220/  9/ 14   N/A
$$


>>>>>>>>>>>>>>>>>>>>>>>>>>>> KEY <<<<<<<<<<<<<<<<<<<<<<<<<<<
>                                                          <
>     SKY/WX - SKY CONDITION/PRESENT WEATHER               <
>     TMP    - TEMPERATURE IN FAHRENHEIT                   <
>     DP     - DEWPOINT IN FAHRENHEIT                      <
>     RH     - RELATIVE HUMIDITY IN PERCENT                <
>     WIND   - DIRECTION AND SPEED IN MPH                  <
>     PRES   - MEAN SEA LEVEL PRESSURE IN INCHES OF HG     <
>     WCI    - WIND CHILL INDEX                            <
>     VSB    - VISIBILITY IN MILES                         <
>     HX     - HEAT INDEX                                  <
>     TC     - TEMPERATURE IN CELSIUS                      <
>     VRB    - VARIABLE WIND DIRECTION                     <
>                                                          <
>>>>>>>>>>>>>>>>>>>>>>>>>>>> KEY <<<<<<<<<<<<<<<<<<<<<<<<<<<





USA.gov is the U.S. government's official web portal to all federal, state and local government web resources and services.